{"data":{"norad_id":55162,"intl_designator":"2023-004Y","name":"ONEWEB-0621","alt_names":[],"object_type":"PAYLOAD","status":"ACTIVE","operator":null,"country":"UK","launch_date":"2023-01-10","launch_site_code":"AFETR","launch_vehicle":null,"mission":null,"orbit_class":"UNKNOWN","rcs_meters":null,"size_class":null,"mass_kg":null,"dimensions":null,"purposes":["comms"],"wikipedia_slug":null,"has_3d_model":false,"image_url":null,"decayed_at":null,"tle_current":{"epoch":"2026-05-25T02:58:09.618816Z","epoch_age_seconds":71330,"freshness":"FRESH","line1":"1 55162U 23004Y   26145.12372244  .00000500  00000+0  13754-2 0  9997","line2":"2 55162  87.8917  25.6531 0002020  85.1772 274.9587 13.11415084162781","mean_motion":13.11415084,"eccentricity":0.000202,"inclination_deg":87.8917,"raan_deg":25.6531,"arg_perigee_deg":85.1772,"mean_anomaly_deg":274.9587,"bstar":0.0013754,"rev_number":16278,"period_min":109.80505086214,"perigee_km":1216.1555273807,"apogee_km":1219.224241442,"semimajor_km":7595.8268844113,"source":"CELESTRAK","updated_at":"2026-05-25T13:38:22.644092Z"}}}